Simultaneous Nadir Overpasses (SNOs) Predictions

Prediction of SNOs between METOP-B and TERRA Satellite Orbit:

Table of predicted SNOs for the next 14.0 days since TLE Epoch: 11/28/2020
Index Date (METOP-B) Time (METOP-B) Lat,Lon (METOP-B) SZA (METOP-B ) Date (TERRA) Time (TERRA) Lat,Lon (TERRA) SZA (TERRA ) Distance(km) Time Diff (sec)
1 11/29/2020 02:19:58 -81.29, 11.53 74.30 11/29/2020 02:20:58 -81.28, 11.37 74.30 2.92 60
2 11/29/2020 03:10:38 81.29, 179.26 105.75 11/29/2020 03:10:24 81.28, 179.12 105.73 2.53 14
3 12/01/2020 21:54:20 -81.29, 78.32 73.85 12/01/2020 21:55:11 -81.30, 78.19 73.84 2.28 51
4 12/01/2020 22:45:00 81.30,-113.95 106.21 12/01/2020 22:44:37 81.30,-114.09 106.19 2.31 23
5 12/04/2020 17:28:43 -81.29, 144.69 73.50 12/04/2020 17:29:25 -81.30, 144.57 73.49 2.03 42
6 12/04/2020 18:19:23 81.30, -47.58 106.56 12/04/2020 18:18:51 81.30, -47.73 106.53 2.50 32
7 12/07/2020 13:03:05 -81.29,-148.97 73.21 12/07/2020 13:03:38 -81.29,-149.11 73.22 2.36 33
8 12/07/2020 13:53:45 81.30, 18.75 106.84 12/07/2020 13:53:04 81.29, 18.57 106.80 3.27 41
9 12/10/2020 08:37:28 -81.29, -82.66 72.99 12/10/2020 08:37:51 -81.30, -82.47 72.95 3.36 23
